Flag for United Kingdom Weather past 2 weeks in Cardiff, Wales, United Kingdom

Now
54 °F

Passing clouds.


Feels Like: 52 °F
Forecast: 51 / 65 °F
Wind: 6 mph from Northwest

Location: Wales Airport

Current Time: Jul 31, 2015 at 11:34:20 PM

Latest Report: Jul 31, 2015 at 10:20 PM


Visibility: N/A

Pressure: 30.01 "Hg

Humidity: 82%

Dew point: 48 °F

Location of CardiffLocation

Historic Weather in Cardiff — Graph

°F

Cardiff temperature yesterday

Maximum temperature yesterday: 63 °F (at 12:50 PM)
Minimum temperature yesterday: 46 °F (at 4:20 AM)
Average temperature yesterday: 55 °F

Past Weeks' High & Low Weather Summary

 TemperatureHumidityPressure
High70 °F (Jul 20, 1:20 PM)100% (Jul 17, 7:20 AM)30.15 "Hg (Jul 17, 7:20 AM)
Low43 °F (Jul 31, 4:50 AM)52% (Jul 19, 3:20 PM)29.42 "Hg (Jul 26, 5:20 PM)
Average59 °F80%29.89 "Hg
* Reported Jul 16 11:20 PM — Jul 31 10:20 PM, Cardiff, Weather by CustomWeather, © 2015

Note: Actual official high and low records may vary slightly from our data, if they occured in-between our weather recording intervals... More about our weather records

Advertising

Cardiff weather history for previous 24 hours

 ConditionsComfort  
Time TempWeatherWind HumidityBarometerVisibility
10:20 PM
Fri, Jul 31
54 °FPassing clouds.6 mph82%30.01 "HgN/A
9:50 PM55 °FPassing clouds.8 mph77%30.01 "HgN/A
9:20 PM55 °FPassing clouds.7 mph77%30.01 "HgN/A
8:50 PM55 °FPassing clouds.7 mph77%30.01 "HgN/A
8:20 PM57 °FPassing clouds.10 mph77%30.01 "HgN/A
7:50 PM59 °FPassing clouds.12 mph72%30.01 "HgN/A
7:20 PM59 °FPassing clouds.9 mph72%30.01 "HgN/A
6:50 PM61 °FPassing clouds.12 mph63%30.01 "HgN/A
6:20 PM63 °FPassing clouds.10 mph56%30.01 "HgN/A
5:50 PM63 °FPassing clouds.10 mph56%30.01 "HgN/A
5:20 PM63 °FPassing clouds.10 mph59%30.04 "HgN/A
4:50 PM64 °FPassing clouds.12 mph52%30.04 "HgN/A
4:20 PM64 °FPassing clouds.9 mph56%30.04 "HgN/A
3:50 PM64 °FPassing clouds.10 mph52%30.04 "HgN/A
3:20 PM64 °FPassing clouds.9 mph52%30.04 "HgN/A
2:50 PM64 °FPassing clouds.8 mph52%30.07 "HgN/A
2:20 PM64 °FPassing clouds.8 mph52%30.07 "HgN/A
1:50 PM63 °FPassing clouds.7 mph56%30.07 "HgN/A
1:20 PM63 °FPassing clouds.7 mph56%30.07 "HgN/A
12:50 PM63 °FPassing clouds.7 mph52%30.07 "HgN/A
12:20 PM61 °FPassing clouds.6 mph55%30.09 "HgN/A
11:50 AM61 °FPassing clouds.5 mph55%30.09 "HgN/A
11:20 AM61 °FPassing clouds.6 mph63%30.09 "HgN/A
10:50 AM61 °FPassing clouds.6 mph68%30.09 "HgN/A
10:20 AM59 °FPassing clouds.5 mph72%30.09 "HgN/A
9:50 AM59 °FPassing clouds.5 mph72%30.09 "HgN/A
9:20 AM59 °FPassing clouds.3 mph68%30.12 "HgN/A
8:50 AM55 °FPassing clouds.5 mph77%30.12 "HgN/A
8:20 AM54 °FPassing clouds.5 mph77%30.12 "HgN/A
7:50 AM52 °FPassing clouds.5 mph77%30.12 "HgN/A
7:20 AM50 °FPassing clouds.6 mph82%30.12 "HgN/A
6:50 AM48 °FSunny.5 mph82%30.12 "Hg10 mi
6:20 AM45 °FClear.5 mph93%30.12 "Hg10 mi
5:50 AM43 °FClear.3 mph93%30.12 "Hg10 mi
5:20 AM43 °FClear.3 mph93%30.12 "Hg10 mi
4:50 AM43 °FQuite cool.3 mph93%30.12 "HgN/A
4:20 AM45 °FClear.5 mph87%30.12 "Hg10 mi
3:50 AM45 °FQuite cool.5 mph87%30.12 "HgN/A
3:20 AM46 °FClear.3 mph87%30.15 "Hg10 mi
2:50 AM46 °FClear.3 mph87%30.15 "Hg10 mi
2:20 AM46 °FCool.5 mph82%30.15 "HgN/A
1:50 AM46 °FClear.6 mph87%30.15 "Hg10 mi
1:20 AM46 °FClear.7 mph87%30.15 "Hg10 mi
12:50 AM46 °FClear.6 mph87%30.15 "Hg10 mi
12:20 AM48 °FClear.6 mph82%30.15 "Hg10 mi
11:50 PM
Thu, Jul 30
50 °FClear.6 mph76%30.15 "Hg10 mi
Weather by CustomWeather, © 2015

See weather overviewHow to use our weather pages